Morgantown, WV

5:56 PM EDT on April 21, 2018 (GMT -0400)
Morgantown Municipal-Hart

Weather History for KMGW - January, 2015

Change the Weather History Date:

Thursday, January 22, 2015

  Actual Average Record
Temperature  
Mean Temperature 33 °F 31 °F  
Max Temperature 35 °F 39 °F 76 °F (1906)
Min Temperature 30 °F 24 °F -5 °F (1984)
Degree Days  
Heating Degree Days 32 34  
Month to date heating degree days 788 745  
Since 1 July heating degree days 2645 2729  
Cooling Degree Days 0 0  
Month to date cooling degree days 0 0  
Year to date cooling degree days 0 0  
Moisture  
Dew Point 26 °F    
Average Humidity 75    
Maximum Humidity 92    
Minimum Humidity 58    
Precipitation  
Precipitation 0.01 in 0.09 in 1.54 in (1926)
Month to date precipitation 1.73 1.99  
Year to date precipitation 1.73 1.99  
Sea Level Pressure  
Sea Level Pressure 30.29 in    
Wind  
Wind Speed 3 mph (West)    
Max Wind Speed 8 mph    
Max Gust Speed 13 mph    
Visibility 7 miles    
Events Fog , Snow    
T = Trace of Precipitation, MM = Missing Value Source: NWS Daily Summary

Daily Weather History Graph

Daily Weather History Graph

Search for Another Location

Airport or City:

Astronomy

Jan. 22, 2015 Rise Set
Actual Time 7:35 AM EST 5:27 PM EST
Civil Twilight 7:06 AM EST 5:56 PM EST
Nautical Twilight 6:33 AM EST 6:29 PM EST
Astronomical Twilight 6:01 AM EST 7:01 PM EST
Moon 8:47 AM EST (1/22) 8:24 PM EST (1/22)
Length of Visible Light 10h 50m
Length of Day
9h 52m
Waxing Crescent, 7% of the Moon is Illuminated
Jan 22
Waxing Crescent
Jan 26
First Quarter
Feb 3
Full
Feb 11
Last Quarter
Feb 18
New

Hourly Weather History & Observations

Time (EST) Temp. Windchill Dew Point Humidity Pressure Visibility Wind Dir Wind Speed Gust Speed Precip Events Conditions
12:00 AM 32.0 °F 26.4 °F 30.0 °F 92% 30.12 in 0.8 mi South 5.8 mph - 0.00 in Snow Light Snow
12:09 AM 32.0 °F 27.5 °F 30.0 °F 92% 30.12 in 1.5 mi South 4.6 mph - 0.00 in Snow Light Snow
12:14 AM 33.1 °F 28.7 °F 30.0 °F 89% 30.12 in 2.0 mi South 4.6 mph - 0.00 in   Overcast
12:20 AM 32.0 °F 28.7 °F 30.0 °F 92% 30.12 in 1.0 mi South 3.5 mph - 0.01 in Snow Light Snow
12:24 AM 32.0 °F 28.7 °F 30.0 °F 92% 30.12 in 0.8 mi South 3.5 mph - 0.01 in Snow Light Snow
2:49 AM 30.2 °F 26.7 °F 28.4 °F 93% 30.16 in 0.5 mi South 3.5 mph - N/A Fog Light Freezing Fog
2:53 AM 30.9 °F 27.5 °F 28.0 °F 89% 30.19 in 0.2 mi South 3.5 mph - N/A Fog Light Freezing Fog
3:03 AM 33.1 °F 28.7 °F 28.9 °F 85% 30.16 in 1.0 mi SSW 4.6 mph - N/A   Mostly Cloudy
3:07 AM 33.1 °F 30.0 °F 28.9 °F 85% 30.16 in 3.0 mi SSW 3.5 mph - N/A   Mostly Cloudy
3:53 AM 33.1 °F 30.0 °F 28.9 °F 85% 30.19 in 7.0 mi SW 3.5 mph - N/A   Overcast
4:07 AM 33.1 °F 28.7 °F 28.9 °F 85% 30.17 in 7.0 mi SW 4.6 mph - N/A   Overcast
4:49 AM 33.8 °F - 28.4 °F 81% 30.18 in 5.0 mi Calm Calm - N/A   Haze
4:53 AM 34.0 °F - 28.9 °F 82% 30.22 in 5.0 mi Calm Calm - N/A   Haze
5:35 AM 33.1 °F 27.7 °F 28.9 °F 85% 30.20 in 8.0 mi WNW 5.8 mph - N/A   Overcast
5:53 AM 34.0 °F 31.0 °F 28.0 °F 79% 30.24 in 10.0 mi WNW 3.5 mph - N/A   Overcast
6:04 AM 33.1 °F 26.9 °F 27.0 °F 78% 30.22 in 10.0 mi Variable 6.9 mph - N/A   Overcast
6:33 AM 33.1 °F 27.7 °F 27.0 °F 78% 30.23 in 10.0 mi WNW 5.8 mph - N/A   Overcast
6:53 AM 34.0 °F 28.8 °F 27.0 °F 75% 30.27 in 10.0 mi Variable 5.8 mph - N/A   Overcast
7:53 AM 34.0 °F - 27.0 °F 75% 30.30 in 10.0 mi Calm Calm - N/A   Overcast
8:09 AM 34.0 °F 31.0 °F 27.0 °F 75% 30.27 in 10.0 mi WSW 3.5 mph - N/A   Overcast
8:26 AM 34.0 °F - 27.0 °F 75% 30.29 in 10.0 mi Calm Calm - N/A   Overcast
8:51 AM 33.8 °F 30.8 °F 26.6 °F 75% 30.30 in 10.0 mi Variable 3.5 mph - N/A   Overcast
8:53 AM 34.0 °F - 26.1 °F 73% 30.32 in 10.0 mi Calm Calm - N/A   Overcast
9:06 AM 34.0 °F 31.0 °F 26.1 °F 73% 30.30 in 10.0 mi West 3.5 mph - N/A   Overcast
9:53 AM 34.0 °F - 27.0 °F 75% 30.36 in 10.0 mi Calm Calm - N/A   Overcast
10:28 AM 34.0 °F - 27.0 °F 75% 30.33 in 9.0 mi Calm Calm - N/A   Overcast
10:53 AM 34.0 °F - 28.9 °F 82% 30.36 in 6.0 mi Calm Calm - N/A   Haze
11:53 AM 34.0 °F 31.0 °F 28.0 °F 79% 30.36 in 5.0 mi West 3.5 mph - N/A   Haze
12:06 PM 33.1 °F 26.9 °F 28.0 °F 82% 30.32 in 3.0 mi North 6.9 mph - 0.00 in Snow Light Snow
12:53 PM 33.1 °F 26.9 °F 27.0 °F 78% 30.35 in 9.0 mi NW 6.9 mph - 0.00 in   Overcast
1:18 PM 33.1 °F 27.7 °F 27.0 °F 78% 30.31 in 10.0 mi NW 5.8 mph - N/A   Overcast
1:53 PM 34.0 °F 28.8 °F 26.1 °F 73% 30.36 in 10.0 mi West 5.8 mph - N/A   Overcast
2:05 PM 33.1 °F 26.1 °F 25.0 °F 72% 30.32 in 10.0 mi West 8.1 mph - N/A   Overcast
2:53 PM 34.0 °F 28.0 °F 25.0 °F 70% 30.37 in 10.0 mi West 6.9 mph - N/A   Overcast
3:53 PM 34.0 °F 29.8 °F 24.1 °F 67% 30.40 in 10.0 mi WNW 4.6 mph - N/A   Overcast
4:53 PM 33.1 °F 30.0 °F 24.1 °F 70% 30.41 in 10.0 mi Variable 3.5 mph - N/A   Overcast
5:31 PM 33.1 °F 30.0 °F 23.0 °F 66% 30.38 in 10.0 mi NW 3.5 mph - N/A   Overcast
5:53 PM 33.1 °F 28.7 °F 23.0 °F 66% 30.43 in 10.0 mi WNW 4.6 mph - N/A   Overcast
6:53 PM 32.0 °F 27.5 °F 21.9 °F 66% 30.45 in 10.0 mi WNW 4.6 mph - N/A   Overcast
7:53 PM 32.0 °F 27.5 °F 21.9 °F 66% 30.45 in 10.0 mi NW 4.6 mph - N/A   Overcast
8:53 PM 30.9 °F - 21.0 °F 67% 30.44 in 10.0 mi Calm Calm - N/A   Overcast
9:53 PM 30.9 °F 27.5 °F 19.0 °F 61% 30.43 in 10.0 mi North 3.5 mph - N/A   Overcast
10:53 PM 30.0 °F - 18.0 °F 61% 30.42 in 10.0 mi Calm Calm - N/A   Overcast
11:53 PM 30.0 °F 25.2 °F 19.0 °F 64% 30.43 in 10.0 mi NNW 4.6 mph - N/A   Overcast